This is the latest recevied weather packets stored in our database for station/object N6OIM. If no packets are shown the sender has not sent any weather packets the latest 10 day(s).
| Time | Temp. | Humidity | Pressure | Rain* | Wind** | Luminosity | Snow |
|---|---|---|---|---|---|---|---|
| 1787864301 | 35° C | 26% | 1011.5 hPa | 0 mm | - | - | - |
| 1787864011 | 35° C | 26% | 1011.4 hPa | 0 mm | - | - | - |
| 1787863699 | 35° C | 26% | 1011.6 hPa | 0 mm | - | - | - |
| 1787863408 | 35° C | 27% | 1011.5 hPa | 0 mm | - | - | - |
| 1787863096 | 35° C | 27% | 1011.4 hPa | 0 mm | - | - | - |
| 1787862806 | 35° C | 27% | 1011.4 hPa | 0 mm | - | - | - |
| 1787862515 | 35° C | 27% | 1011.4 hPa | 0 mm | - | - | - |
| 1787862205 | 35° C | 28% | 1011.8 hPa | 0 mm | - | - | - |
| 1787861914 | 35° C | 27% | 1011.8 hPa | 0 mm | - | - | - |
| 1787861607 | 35° C | 29% | 1011.6 hPa | 0 mm | - | - | - |
| 1787861315 | 35° C | 26% | 1011.5 hPa | 0 mm | - | - | - |
| 1787861005 | 35° C | 29% | 1011.7 hPa | 0 mm | - | - | - |
| 1787860713 | 35° C | 29% | 1011.8 hPa | 0 mm | - | - | - |
| 1787860404 | 35° C | 29% | 1011.7 hPa | 0 mm | - | - | - |
| 1787860112 | 35° C | 27% | 1011.7 hPa | 0 mm | - | - | - |
| 1787859803 | 35° C | 26% | 1011.7 hPa | 0 mm | - | - | - |
| 1787859511 | 34.44° C | 26% | 1011.7 hPa | 0 mm | - | - | - |
| 1787859203 | 34.44° C | 27% | 1012 hPa | 0 mm | - | - | - |
| 1787858898 | 33.89° C | 30% | 1011.9 hPa | 0 mm | - | - | - |
| 1787858608 | 33.89° C | 29% | 1011.9 hPa | 0 mm | - | - | - |
| 1787858297 | 33.33° C | 30% | 1011.8 hPa | 0 mm | - | - | - |
| 1787858007 | 33.33° C | 30% | 1011.8 hPa | 0 mm | - | - | - |
| 1787857698 | 32.78° C | 29% | 1011.9 hPa | 0 mm | - | - | - |
| 1787857408 | 32.78° C | 31% | 1012 hPa | 0 mm | - | - | - |
| 1787857096 | 32.78° C | 31% | 1012.1 hPa | 0 mm | - | - | - |
* Rain latest hour (hover to see other rain measurements)
** Current wind speed in m/s (hover to see current wind gust speed)